DW9882 Weather Reports


time (UTC)temp
C
wind
direction
speed
KPH
gust
KPH
rain 1hr
cm
rain 24hr
cm
rain mn
cm
humidity
%
barometer
mb
20260906223705 32 5 1.6 9.7 0.00 0.00 0.00 33 1016.2
20260906223205 32 60 4.8 12.9 0.00 0.00 0.00 31 1016.3
20260906222706 32 89 3.2 4.8 0.00 0.00 0.00 31 1016.4
20260906222205 32 83 3.2 8.0 0.00 0.00 0.00 31 1016.5
20260906221705 32 74 1.6 8.0 0.00 0.00 0.00 31 1016.5
20260906221206 32 6 6.4 12.9 0.00 0.00 0.00 31 1016.6
20260906220705 32 32 1.6 4.8 0.00 0.00 0.00 32 1016.6
20260906215705 32 20 1.6 4.8 0.00 0.00 0.00 33 1016.8
20260906215205 32 107 0.0 9.7 0.00 0.00 0.00 33 1016.8
20260906214705 32 11 3.2 11.3 0.00 0.00 0.00 32 1017.0
20260906214205 32 49 3.2 11.3 0.00 0.00 0.00 32 1017.0
20260906213705 32 201 1.6 4.8 0.00 0.00 0.00 33 1017.0
20260906213205 32 86 1.6 11.3 0.00 0.00 0.00 35 1017.1
20260906212705 32 3 4.8 14.5 0.00 0.00 0.00 32 1017.3
20260906212205 32 13 1.6 4.8 0.00 0.00 0.00 34 1017.3
20260906211705 31 89 4.8 12.9 0.00 0.00 0.00 33 1017.4
20260906211205 31 9 1.6 8.0 0.00 0.00 0.00 36 1017.4
20260906210705 31 58 3.2 4.8 0.00 0.00 0.00 33 1017.5
20260906210206 31 49 3.2 14.5 0.00 0.00 0.00 34 1017.6
20260906205706 31 64 1.6 4.8 0.00 0.00 0.00 33 1017.7
20260906204705 31 26 3.2 14.5 0.00 0.00 0.00 34 1017.8
20260906204205 31 48 3.2 12.9 0.00 0.00 0.00 33 1017.9
20260906203705 31 96 1.6 4.8 0.00 0.00 0.00 32 1018.0
20260906203205 31 337 3.2 8.0 0.00 0.00 0.00 34 1018.0
20260906202705 31 142 1.6 4.8 0.00 0.00 0.00 34 1018.0
20260906202205 31 45 3.2 11.3 0.00 0.00 0.00 34 1018.1
20260906201705 31 174 1.6 4.8 0.00 0.00 0.00 36 1018.2
20260906201205 30 152 1.6 4.8 0.00 0.00 0.00 35 1018.2
20260906195705 30 33 4.8 12.9 0.00 0.00 0.00 34 1018.3
20260906195205 30 61 3.2 16.1 0.00 0.00 0.00 33 1018.4
20260906194705 30 65 1.6 4.8 0.00 0.00 0.00 34 1018.4
20260906194206 30 123 1.6 9.7 0.00 0.00 0.00 36 1018.5
20260906193705 30 61 1.6 4.8 0.00 0.00 0.00 35 1018.5
20260906193205 30 46 3.2 9.7 0.00 0.00 0.00 35 1018.6
20260906192705 30 72 1.6 4.8 0.00 0.00 0.00 40 1018.7
20260906192205 30 94 1.6 4.8 0.00 0.00 0.00 36 1018.7
20260906191205 29 82 1.6 4.8 0.00 0.00 0.00 40 1018.8
20260906190705 29 134 1.6 3.2 0.00 0.00 0.00 39 1018.9
20260906185705 28 30 4.8 9.7 0.00 0.00 0.00 39 1019.1
20260906184705 28 105 1.6 4.8 0.00 0.00 0.00 41 1019.3
20260906183705 28 45 3.2 8.0 0.00 0.00 0.00 41 1019.5
20260906183205 27 60 1.6 8.0 0.00 0.00 0.00 42 1019.5
20260906182704 27 64 1.6 8.0 0.00 0.00 0.00 42 1019.5
20260906182206 27 31 1.6 8.0 0.00 0.00 0.00 43 1019.6
20260906181705 27 61 1.6 8.0 0.00 0.00 0.00 42 1019.8
20260906181205 27 38 3.2 4.8 0.00 0.00 0.00 43 1019.9
20260906180705 27 105 1.6 4.8 0.00 0.00 0.00 43 1019.9
20260906180205 27 35 3.2 9.7 0.00 0.00 0.00 44 1020.0
20260906175705 27 9 1.6 4.8 0.00 0.00 0.00 44 1020.1
20260906175205 27 353 1.6 4.8 0.00 0.00 0.00 46 1020.1
20260906174705 26 337 3.2 8.0 0.00 0.00 0.00 44 1020.2
20260906174205 26 71 1.6 4.8 0.00 0.00 0.00 46 1020.3
20260906173705 26 71 1.6 4.8 0.00 0.00 0.00 46 1020.4
20260906173205 26 29 1.6 4.8 0.00 0.00 0.00 46 1020.5
20260906172705 26 100 1.6 4.8 0.00 0.00 0.00 48 1020.6
20260906172205 26 101 1.6 4.8 0.00 0.00 0.00 49 1020.7
20260906171205 25 74 0.0 3.2 0.00 0.00 0.00 53 1020.8
20260906170705 25 74 0.0 1.6 0.00 0.00 0.00 52 1020.9
20260906170205 25 74 0.0 4.8 0.00 0.00 0.00 52 1021.0
20260906165705 25 74 1.6 4.8 0.00 0.00 0.00 53 1021.1
20260906165205 25 74 0.0 3.2 0.00 0.00 0.00 53 1021.2
20260906163705 24 40 1.6 4.8 0.00 0.00 0.00 53 1021.1
20260906163205 23 87 0.0 4.8 0.00 0.00 0.00 55 1021.1
20260906162205 23 71 1.6 4.8 0.00 0.00 0.00 59 1021.1
20260906161205 22 48 1.6 4.8 0.00 0.00 0.00 60 1021.1
20260906160705 22 48 1.6 4.8 0.00 0.00 0.00 60 1021.1
20260906160205 22 91 1.6 4.8 0.00 0.00 0.00 65 1021.1
20260906155704 22 91 1.6 3.2 0.00 0.00 0.00 66 1021.1
20260906155205 22 91 1.6 4.8 0.00 0.00 0.00 66 1021.1
20260906154704 21 91 1.6 4.8 0.00 0.00 0.00 68 1021.1
20260906154204 21 58 1.6 9.7 0.00 0.00 0.00 71 1021.1
20260906153705 21 76 1.6 4.8 0.00 0.00 0.00 71 1021.0
20260906153204 20 76 1.6 4.8 0.00 0.00 0.00 72 1021.1
20260906152705 20 76 0.0 4.8 0.00 0.00 0.00 73 1021.1
20260906152205 20 77 1.6 4.8 0.00 0.00 0.00 74 1021.1
20260906151205 20 63 1.6 4.8 0.00 0.00 0.00 76 1021.1
20260906150705 19 355 1.6 3.2 0.00 0.00 0.00 77 1021.2
20260906145705 19 355 1.6 4.8 0.00 0.00 0.00 78 1021.2
20260906145205 18 355 0.0 1.6 0.00 0.00 0.00 78 1021.2
20260906144705 18 355 1.6 4.8 0.00 0.00 0.00 79 1021.2
20260906144204 18 232 0.0 3.2 0.00 0.00 0.00 79 1021.3
20260906143705 18 232 0.0 1.6 0.00 0.00 0.00 79 1021.3
20260906143205 18 232 0.0 3.2 0.00 0.00 0.00 80 1021.3
20260906142705 18 246 0.0 0.0 0.00 0.00 0.00 81 1021.2
20260906142204 17 246 0.0 0.0 0.00 0.00 0.00 80 1021.2
20260906141705 17 246 1.6 3.2 0.00 0.00 0.00 81 1021.2
20260906141204 17 246 0.0 3.2 0.00 0.00 0.00 81 1021.2
20260906140705 17 246 0.0 3.2 0.00 0.00 0.00 81 1021.3
20260906140204 17 242 0.0 1.6 0.00 0.00 0.00 82 1021.3
20260906135705 16 242 0.0 1.6 0.00 0.00 0.00 82 1021.3
20260906135205 16 242 0.0 1.6 0.00 0.00 0.00 82 1021.3
20260906134704 16 242 0.0 1.6 0.00 0.00 0.00 82 1021.4
20260906134204 16 242 0.0 0.0 0.00 0.00 0.00 83 1021.2
20260906133204 16 242 0.0 1.6 0.00 0.00 0.00 83 1021.1
20260906132705 16 242 0.0 0.0 0.00 0.00 0.00 83 1021.1
20260906132205 16 242 0.0 0.0 0.00 0.00 0.00 83 1021.0
20260906131204 16 242 0.0 0.0 0.00 0.00 0.00 82 1021.1
20260906130704 16 242 0.0 0.0 0.00 0.00 0.00 82 1021.0
20260906125704 16 242 0.0 0.0 0.00 0.00 0.00 81 1020.9
20260906125204 16 242 0.0 0.0 0.00 0.00 0.00 81 1020.8
20260906124705 16 242 0.0 0.0 0.00 0.00 0.00 80 1020.8
20260906123705 16 242 0.0 0.0 0.00 0.00 0.00 80 1020.8
20260906123205 16 242 0.0 0.0 0.00 0.00 0.00 79 1020.8
20260906122704 16 242 0.0 0.0 0.00 0.00 0.00 79 1020.8
20260906121205 16 242 0.0 0.0 0.00 0.00 0.00 78 1020.9
20260906120204 17 242 0.0 0.0 0.00 0.00 0.00 77 1020.9
20260906115204 17 242 0.0 0.0 0.00 0.00 0.00 77 1020.8
20260906114205 17 242 0.0 0.0 0.00 0.00 0.00 76 1020.8
20260906113204 17 242 0.0 0.0 0.00 0.00 0.00 75 1020.8
20260906112704 17 242 0.0 0.0 0.00 0.00 0.00 74 1020.8
20260906112204 17 242 0.0 0.0 0.00 0.00 0.00 73 1020.8
20260906111705 17 242 0.0 0.0 0.00 0.00 0.00 72 1020.7
20260906111204 17 242 0.0 0.0 0.00 0.00 0.00 72 1020.6
20260906110704 17 242 0.0 0.0 0.00 0.00 0.00 71 1020.6
20260906110204 17 242 0.0 0.0 0.00 0.00 0.00 69 1020.5
20260906105705 17 242 0.0 1.6 0.00 0.00 0.00 68 1020.6
20260906104705 17 242 0.0 1.6 0.00 0.00 0.00 67 1020.5
20260906103204 17 227 0.0 1.6 0.00 0.00 0.00 65 1020.5
20260906102704 18 227 0.0 4.8 0.00 0.00 0.00 65 1020.4
20260906102204 18 227 0.0 0.0 0.00 0.00 0.00 64 1020.3
20260906100704 18 227 0.0 0.0 0.00 0.00 0.00 62 1020.3
20260906100204 18 227 0.0 0.0 0.00 0.00 0.00 62 1020.4
20260906095705 18 227 0.0 0.0 0.00 0.00 0.00 61 1020.3
20260906095205 18 227 0.0 0.0 0.00 0.00 0.00 60 1020.5
20260906094704 18 227 0.0 0.0 0.00 0.00 0.00 59 1020.3
20260906094204 18 227 0.0 0.0 0.00 0.00 0.00 58 1020.4
20260906093705 19 227 0.0 0.0 0.00 0.00 0.00 58 1020.3
20260906093204 19 227 0.0 0.0 0.00 0.00 0.00 58 1020.4
20260906092704 19 227 0.0 0.0 0.00 0.00 0.00 57 1020.4
20260906092205 19 227 0.0 0.0 0.00 0.00 0.00 57 1020.3
20260906091704 19 227 0.0 0.0 0.00 0.00 0.00 57 1020.3
20260906091204 19 227 0.0 0.0 0.00 0.00 0.00 56 1020.2
20260906090704 19 227 0.0 0.0 0.00 0.00 0.00 57 1020.2
20260906085704 20 227 0.0 1.6 0.00 0.00 0.00 56 1020.1
20260906085204 20 227 0.0 1.6 0.00 0.00 0.00 56 1020.0
20260906084704 20 227 0.0 0.0 0.00 0.00 0.00 56 1020.0
20260906084205 20 227 0.0 0.0 0.00 0.00 0.00 55 1020.0
20260906083704 20 227 0.0 0.0 0.00 0.00 0.00 55 1020.0
20260906083204 20 227 0.0 0.0 0.00 0.00 0.00 55 1020.0
20260906082704 21 227 0.0 0.0 0.00 0.00 0.00 54 1020.0
20260906082205 21 227 0.0 0.0 0.00 0.00 0.00 54 1019.9
20260906081704 21 227 0.0 1.6 0.00 0.00 0.00 53 1019.9
20260906081204 21 227 0.0 1.6 0.00 0.00 0.00 54 1019.9
20260906080704 21 227 0.0 0.0 0.00 0.00 0.00 53 1019.8
20260906080205 21 227 0.0 1.6 0.00 0.00 0.00 53 1019.8
20260906075704 21 227 0.0 1.6 0.00 0.00 0.00 53 1019.7
20260906075204 21 227 1.6 4.8 0.00 0.00 0.00 53 1019.7
20260906073704 21 239 1.6 3.2 0.00 0.00 0.00 52 1019.6
20260906073204 21 239 0.0 1.6 0.00 0.00 0.00 52 1019.6
20260906072704 21 239 1.6 4.8 0.00 0.00 0.00 52 1019.6
20260906072204 21 252 0.0 3.2 0.00 0.00 0.00 52 1019.6
20260906071705 21 252 0.0 0.0 0.00 0.00 0.00 53 1019.6
20260906071204 21 252 0.0 1.6 0.00 0.00 0.00 53 1019.6
20260906070704 21 252 0.0 4.8 0.00 0.00 0.00 53 1019.6
20260906070204 21 213 1.6 4.8 0.00 0.00 0.00 53 1019.6
20260906065704 21 290 1.6 4.8 0.00 0.00 0.00 54 1019.7
20260906064704 21 286 1.6 4.8 0.00 0.00 0.00 54 1019.9
20260906063204 21 277 0.0 1.6 0.00 0.00 0.00 53 1019.9
20260906062704 22 277 0.0 4.8 0.00 0.00 0.00 52 1019.9
20260906062203 22 156 0.0 0.0 0.00 0.00 0.00 52 1019.9
20260906061704 22 155 0.0 0.0 0.00 0.00 0.00 52 1020.0
20260906060705 22 155 0.0 0.0 0.00 0.00 0.00 50 1020.0
20260906060205 22 155 0.0 0.0 0.00 0.00 0.00 50 1020.0
20260906055704 23 155 0.0 0.0 0.00 0.00 0.00 50 1020.2
20260906055204 23 155 0.0 0.0 0.00 0.00 0.00 50 1020.2
20260906054704 23 155 0.0 4.8 0.00 0.00 0.00 50 1020.1
20260906054203 23 290 0.0 4.8 0.00 0.00 0.00 50 1020.1
20260906053704 23 225 0.0 4.8 0.00 0.00 0.00 49 1020.1
20260906052704 23 216 1.6 3.2 0.00 0.00 0.00 48 1020.0
20260906051205 23 213 0.0 0.0 0.00 0.00 0.00 44 1020.4
20260906050204 23 213 0.0 4.8 0.00 0.00 0.00 44 1020.5
20260906045703 23 213 1.6 4.8 0.00 0.00 0.00 44 1020.6
20260906045203 22 184 1.6 8.0 0.00 0.00 0.00 45 1020.5
20260906044704 22 205 3.2 11.3 0.00 0.00 0.00 45 1020.6
20260906044203 21 162 0.0 3.2 0.00 0.00 0.00 46 1020.6
20260906043703 21 162 0.0 8.0 0.00 0.00 0.00 47 1020.5
20260906043203 21 24 0.0 3.2 0.00 0.00 0.00 47 1020.5
20260906042704 21 24 0.0 0.0 0.00 0.00 0.00 49 1020.3
20260906042204 21 24 0.0 0.0 0.00 0.00 0.00 49 1020.0
20260906041704 21 24 0.0 1.6 0.00 0.00 0.00 49 1019.8
20260906041204 21 24 0.0 0.0 0.00 0.00 0.00 47 1019.6
20260906040704 21 24 0.0 0.0 0.00 0.00 0.00 47 1019.5
20260906035204 22 24 0.0 3.2 0.00 0.00 0.00 46 1019.5
20260906034704 22 24 0.0 0.0 0.00 0.00 0.00 45 1019.4
20260906034204 22 24 0.0 0.0 0.00 0.00 0.00 45 1019.4
20260906033704 22 24 0.0 0.0 0.00 0.00 0.00 45 1019.3
20260906033204 22 24 0.0 1.6 0.00 0.00 0.00 44 1019.2
20260906032704 22 24 0.0 0.0 0.00 0.00 0.00 43 1019.2
20260906032204 22 24 0.0 0.0 0.00 0.00 0.00 44 1019.2
20260906031704 22 24 0.0 0.0 0.00 0.00 0.00 43 1019.2
20260906030704 23 24 0.0 1.6 0.00 0.00 0.00 43 1019.1
20260906030204 23 24 0.0 0.0 0.00 0.00 0.00 43 1018.9
20260906025703 23 24 0.0 0.0 0.00 0.00 0.00 42 1018.8
20260906025204 24 24 0.0 0.0 0.00 0.00 0.00 41 1018.7
20260906024704 24 24 0.0 0.0 0.00 0.00 0.00 40 1018.6
20260906024203 25 24 0.0 0.0 0.00 0.00 0.00 40 1018.4
20260906023704 25 24 0.0 0.0 0.00 0.00 0.00 39 1018.4
20260906023204 25 24 0.0 0.0 0.00 0.00 0.00 38 1018.3
20260906022703 25 24 0.0 0.0 0.00 0.00 0.00 37 1018.4
20260906022203 26 24 0.0 0.0 0.00 0.00 0.00 36 1018.3
20260906021706 26 24 0.0 0.0 0.00 0.00 0.00 36 1018.3
20260906021205 26 24 0.0 0.0 0.00 0.00 0.00 35 1018.3
20260906020706 26 24 0.0 0.0 0.00 0.00 0.00 34 1018.3
20260906020206 26 24 0.0 1.6 0.00 0.00 0.00 34 1018.3
20260906015706 27 24 0.0 0.0 0.00 0.00 0.00 33 1018.3
20260906015206 27 24 0.0 0.0 0.00 0.00 0.00 33 1018.3
20260906014706 27 24 0.0 1.6 0.00 0.00 0.00 32 1018.2
20260906013206 27 24 0.0 0.0 0.00 0.00 0.00 30 1018.0
20260906012705 28 24 0.0 0.0 0.00 0.00 0.00 29 1018.0
20260906012207 28 24 0.0 1.6 0.00 0.00 0.00 29 1018.1
20260906011705 28 24 0.0 1.6 0.00 0.00 0.00 29 1018.1
20260906011205 28 24 0.0 3.2 0.00 0.00 0.00 29 1018.1
20260906010706 28 24 0.0 4.8 0.00 0.00 0.00 28 1018.1
20260906010206 28 0 0.0 4.8 0.00 0.00 0.00 27 1018.0
20260906005705 28 1 1.6 8.0 0.00 0.00 0.00 27 1018.0
20260906005205 28 22 1.6 4.8 0.00 0.00 0.00 27 1018.0
20260906004706 29 33 3.2 11.3 0.00 0.00 0.00 26 1018.0
20260906004206 29 1 1.6 4.8 0.00 0.00 0.00 27 1017.9
20260906003705 30 39 1.6 4.8 0.00 0.00 0.00 28 1018.0
20260906003205 30 44 0.0 4.8 0.00 0.00 0.00 30 1018.0
20260906002706 30 44 0.0 0.0 0.00 0.00 0.00 29 1018.0
20260906002205 30 44 0.0 0.0 0.00 0.00 0.00 29 1018.0
20260906001705 31 44 0.0 0.0 0.00 0.00 0.00 28 1017.9
20260906001206 31 44 0.0 0.0 0.00 0.00 0.00 27 1017.9
20260906000206 31 44 0.0 0.0 0.00 0.00 0.00 24 1017.8
20260905235705 32 44 0.0 0.0 0.00 0.00 0.00 24 1017.8
20260905235205 32 44 0.0 0.0 0.00 0.00 0.00 23 1017.8
20260905234706 32 44 0.0 0.0 0.00 0.00 0.00 23 1017.8
20260905234205 32 44 0.0 1.6 0.00 0.00 0.00 24 1017.8
20260905233706 32 44 0.0 1.6 0.00 0.00 0.00 23 1017.8
20260905232705 32 44 1.6 4.8 0.00 0.00 0.00 22 1017.8
20260905232205 32 67 0.0 4.8 0.00 0.00 0.00 22 1017.7
20260905231706 32 61 1.6 4.8 0.00 0.00 0.00 22 1017.7
20260905231205 32 96 0.0 4.8 0.00 0.00 0.00 23 1017.7
20260905230705 32 5 1.6 8.0 0.00 0.00 0.00 21 1017.7
20260905230205 32 51 1.6 3.2 0.00 0.00 0.00 21 1017.7
20260905225205 33 157 0.0 3.2 0.00 0.00 0.00 23 1017.7
20260905224705 33 157 0.0 3.2 0.00 0.00 0.00 24 1017.7
20260905224205 33 157 1.6 4.8 0.00 0.00 0.00 23 1017.7